Location: Hawks Ness
(60.2333°N, 1.1667°W)
Time: 01:20:49
(UTC+00:00)

Cosmos 1602 Rocket - Pass Details

Date: 22 October 2019
Orbit: 604 x 633 km, 82.5° (Epoch: 18 November)

Event Time Altitude Azimuth Distance (km) Brightness Sun altitude
Rises 05:53:17 0° 190° (S) 2,858 6.9 -9.0°
Reaches altitude 10° 05:55:29 10° 190° (S) 1,956 6.1 -8.7°
Maximum altitude 05:59:49 85° 102° (ESE) 617 3.6 -8.2°
Drops below altitude 10° 06:04:10 10° 15° (NNE) 1,969 6.2 -7.7°
Sets 06:06:24 0° 15° (NNE) 2,879 7.1 -7.4°
